SCOUT B DEB, 2800

Orbit data source: Space-Track

SCOUT B DEB, 2800 is space debris in LEO originally from a launch on Thu, 04 Aug 1966 UTC launched from the Air Force Western Test Range (AFWTR). Debris objects in space refer to the collection of defunct objects orbiting the Earth. Examples of debris include non-operational satellites, rocket bodies, and fragments generated from explosions, collisions, or faulty payload assembly.

Loading next visibility...
Identifier
2800, 1966-070D
Orbit
LEO
Country
Flag of USUS
Related business
Manufacturer
Unknown
Mission
Spacecraft
Bus & Motor
Unknown
Mass
Unknown
Launch date (UTC)
1966-08-04 (59 years ago)
Launch vehicle
Unknown
Launch site
Air Force Western Test Range (AFWTR)
Object type
Payload
Rocket body
Debris
Shape & HBR
Unknown shape, 0.1 m
Radar Cross Section
Small (<0.1 m²)

Expand to show TLE details & history
Last TLE update: 10 hours ago

TLE from 10 hours ago
0 SCOUT B DEB
1 02800U 66070D   25351.55839625  .00003852  00000-0  48943-3 0  9997
2 02800  81.4039  19.1890 1399938  89.4484 286.6326 12.40446429562220
Epoch: 2025-12-17T13:24Z
TLE epoch observation values (Epoch: 2025-12-17T13:24:05.435Z)
Latitude
-0.00006°
Longitude
91.73981°
Altitude
1,340.417 km
Speed
7.263 km/s
True Right ascension
01h 16m 45s
True Declination
0° 00' 00"
Sunlit
Object was in daylight at epoch
Visualization orbit readout
Latitude
Unknown
Longitude
Unknown
Altitude
Unknown
Speed
Unknown
Apparent Right ascension
Unknown
Apparent Declination
Unknown
Sunlit
N/A
Visualization observer readout
Local Sidereal Time
22:13:24
Azimuth
Unknown
Elevation
Unknown
Doppler factor
Unknown
Orbital elements
Apogee altitude
2,605.207 km
Perigee altitude
398.857 km
Semi-major axis
7,880.169 km
Eccentricity
0.13999
Inclination
81.4039°
RAAN
19.189°
Arg. of periapsis
89.4484°
True anomaly
270.6635°
Mean anomaly
286.6326°
Eccentric anomaly
278.70392°
Mean motion
3.1027 °/min
Orbital period
116.03 mins
BSTAR
0.00048943
Loading maneuver chart data...
Computing Atmospheric mass density...
Loading historical data...
Loading historical data...
Loading historical data...
Loading historical data...
Loading historical data...
Loading historical data...
Loading historical data...
Other satellites on launch #70 in the year 1966 (1966-08-04 UTC)

Documentation

Showing up to 5 results
|